Regional Weather Roundup
Issued by NWS

Home | Current Version | Previous Version | Text Only | Print | Product List | Glossary Off
Versions: 1 2 3 4 5 6 7 8 9 10 11 12 13 14 15 16 17 18 19 20 21 22 23 24 25 26 27 28 29 30 31 32 33 34 35 36 37 38 39 40 41 42 43 44 45 46 47 48 49 50

000
ASUS45 KCYS 230510
RWRWY

WYOMING REGIONAL WEATHER ROUNDUP
NATIONAL WEATHER SERVICE CHEYENNE WY
1100 PM MDT SUN APR 22 2018

NOTE:  "FAIR" INDICATES FEW OR NO CLOUDS BELOW 12,000 FEET
WITH NO SIGNIFICANT WEATHER AND/OR OBSTRUCTIONS TO VISIBILITY.

WYZ001-230600-
YELLOWSTONE NATIONAL PARK

CITY           SKY/WX    TMP DP  RH WIND       PRES   REMARKS
LK YELLOWSTONE   N/A     31  26  82 CALM      30.09F
W YELLOWSTONE  NOT AVBL

$$
WYZ002>013-054>058-071-098>099-230600-
NORTHERN WYOMING

CITY           SKY/WX    TMP DP  RH WIND       PRES   REMARKS
JACKSON        FAIR      42  32  67 NE5       30.04F
CODY           MOCLDY    53  30  41 NW6       30.04F
GREYBULL       FAIR      56  36  47 W13       29.93F
WORLAND        FAIR      56  32  40 CALM      29.95R
SHERIDAN       MOCLDY    53  40  61 S5        30.06S
BUFFALO        FAIR      49  36  61 NW7       30.09F
GILLETTE       FAIR      51  40  65 SE10      30.05F
HULETT         FAIR      52  36  54 SE6       30.08F
NEWCASTLE      FAIR      52  32  46 SE9G17    30.09S

$$
WYZ014>020-022>026-101>103-230600-
CENTRAL WYOMING

CITY           SKY/WX    TMP DP  RH WIND       PRES   REMARKS
BIG PINEY      MOCLDY    36  22  56 NW7       30.07F WCI  30
PINEDALE       FAIR      36  27  69 NW3       30.08F
DUBOIS         FAIR      41  23  48 W8        30.06F
LANDER         FAIR      55  26  32 W8        29.97F
RIVERTON       FAIR      50  27  40 NW12      29.99R
CASPER         FAIR      48  34  58 E7        30.03R
DOUGLAS        FAIR      45  35  68 SE10      30.08S

$$
WYZ021-027>030-104>119-230600-
SOUTHERN WYOMING

CITY           SKY/WX    TMP DP  RH WIND       PRES   REMARKS
EVANSTON       FAIR      48  24  39 SE8       30.08S
KEMMERER       FAIR      46  27  46 CALM      30.08F
FORT BRIDGER   FAIR      50  18  28 SW8       30.11S
ROCK SPRINGS   FAIR      49  24  37 S8        30.06S
DIXON          FAIR      45  30  56 E8        30.11F
RAWLINS          N/A    N/A N/A N/A MISG      30.07F
SARATOGA       FAIR      46  32  57 SE10      30.11F
LARAMIE        FAIR      43  35  73 SE16      30.12F
CHEYENNE       FAIR      44  36  73 S10       30.15S
TORRINGTON     FAIR      44  41  89 E10       30.11R
PINE BLUFFS    FAIR      41  36  81 MISG      30.15S

$$



USA.gov is the U.S. government's official web portal to all federal, state and local government web resources and services.